Theta_e
320 326 329 330 330 331 332 333 334 334 339 342 342 341 340 345 345 344 342 342 341 342 339 338 340 343 344 344 345 346 348 348 348 346 346 348 348 347 349 351 349 349 350 346
318 325 326 329 329 330 330 332 331 333 340 341 339 340 340 340 346 345 345 343 342 343 340 337 340 342 343 343 344 344 345 347 348 346 346 348 348 346 349 351 350 350 344 344
318 323 323 328 329 330 329 330 332 333 337 340 340 339 340 345 344 344 344 343 343 342 342 336 340 341 341 343 344 344 344 345 346 346 347 348 348 349 351 351 350 349 347 350
317 319 324 326 329 327 330 327 329 331 339 338 337 342 336 341 344 345 343 344 343 342 340 337 340 341 341 342 344 344 345 345 346 346 348 348 347 348 349 351 350 350 346 352
319 319 322 323 324 327 327 326 326 327 335 336 336 339 337 340 340 343 346 345 345 343 341 338 339 341 341 342 343 344 345 346 346 348 348 346 347 346 348 350 350 350 352 352
318 317 319 320 321 323 321 318 315 315 322 333 333 333 330 328 339 342 344 345 345 344 341 337 338 341 341 342 342 344 345 346 346 347 348 348 347 347 348 350 351 352 350 351
316 318 317 317 318 316 314 315 317 319 319 323 319 326 326 324 332 337 341 344 344 342 340 337 338 340 341 341 342 342 344 345 346 348 347 347 347 347 348 352 351 352 350 348
316 318 317 316 318 317 315 313 314 319 318 319 317 324 323 332 334 336 338 341 342 343 341 340 339 340 342 342 342 342 342 343 345 344 345 347 347 346 350 352 351 351 350 349
314 316 316 316 316 316 315 315 312 312 311 315 316 319 326 338 340 340 338 338 339 340 341 341 340 341 342 343 343 342 342 343 343 343 344 345 347 347 350 351 351 350 349 348
314 316 317 318 315 314 315 312 315 310 317 321 319 320 329 335 340 339 340 341 339 338 341 341 342 340 343 344 345 344 343 343 344 345 344 345 347 349 353 352 351 349 347 345
311 314 316 317 317 315 315 314 309 309 312 316 318 320 323 331 334 338 339 340 338 339 339 336 336 342 342 344 346 347 346 345 345 348 346 348 348 353 353 352 348 347 346 343
313 310 316 320 317 316 315 314 311 313 314 311 314 318 323 327 329 332 334 332 334 338 338 336 333 340 342 343 345 347 348 348 348 349 350 350 350 351 352 351 348 345 345 346
314 314 316 318 322 324 320 314 309 307 309 315 318 320 322 328 330 331 331 331 333 335 337 336 335 335 339 341 344 345 347 348 349 351 350 348 349 352 351 348 346 344 340 345
321 312 316 320 326 324 328 320 313 314 315 313 317 322 328 339 336 329 331 334 333 336 337 336 336 335 335 339 344 346 348 349 353 348 352 351 352 353 352 345 341 338 340 344
317 319 322 323 324 327 329 337 320 330 320 329 334 332 341 343 338 328 332 338 342 341 336 337 336 334 334 338 344 349 350 351 349 343 336 349 353 352 347 340 335 339 344 340
317 322 326 331 328 330 334 338 343 344 343 347 342 347 343 341 347 351 351 351 351 351 354 334 337 336 334 343 347 353 354 353 353 352 352 350 351 347 338 334 338 344 339 337
324 324 325 331 326 328 331 335 339 343 343 344 340 345 342 347 352 352 351 344 348 350 350 354 355 340 335 340 350 355 356 356 355 357 355 353 349 342 340 339 339 344 339 338
322 323 321 327 327 333 327 338 340 343 345 343 343 343 341 341 340 341 345 341 340 345 344 348 355 354 353 348 352 354 356 356 357 357 353 352 347 342 341 343 344 344 341 339
318 320 324 327 327 327 335 341 342 341 343 342 343 338 335 333 341 342 338 339 339 338 335 333 339 357 356 352 354 355 356 356 357 355 353 352 350 346 345 344 343 344 342 338
323 317 324 324 329 332 328 336 334 333 336 339 339 337 334 333 338 338 338 336 339 337 334 334 336 340 356 355 355 355 355 356 356 354 354 354 351 349 345 344 342 342 342 336
332 331 326 326 328 328 325 335 331 338 334 338 338 335 332 334 330 330 330 334 335 337 334 336 337 342 350 359 356 355 354 355 356 354 352 351 353 351 346 344 340 341 336 335
332 334 333 330 335 337 331 335 336 332 333 338 336 334 333 332 331 330 329 331 333 336 341 338 337 348 353 359 357 355 355 355 356 353 350 346 343 341 341 338 337 336 335 333
337 331 333 331 332 328 330 332 332 331 331 335 335 334 333 332 331 330 330 332 333 334 346 349 350 357 359 360 359 356 355 356 354 348 345 343 342 341 338 334 332 331 332 324
326 327 332 332 333 335 335 334 331 332 330 330 331 331 331 331 330 331 331 332 332 343 348 352 352 351 355 359 360 359 357 354 351 347 344 342 345 343 338 333 331 330 325 321
323 326 330 330 333 336 333 335 331 330 331 332 334 333 330 329 330 330 331 332 338 344 344 349 351 351 352 353 354 355 355 352 348 345 343 341 339 338 335 331 329 331 331 331
323 328 330 330 326 332 332 332 333 333 334 334 333 331 329 330 330 330 331 335 341 340 341 345 348 348 348 347 348 349 351 348 345 342 340 339 337 334 330 328 327 329 333 333
Wind_Speed
3 5 5 7 5 4 4 4 3 5 2 1 7 6 11 16 13 13 12 12 11 12 11 22 28 30 29 33 36 35 34 34 29 28 24 21 19 16 12 9 7 8 9 9
6 4 8 5 7 5 2 2 4 8 4 2 5 5 4 11 18 19 18 13 15 12 8 14 23 26 32 36 38 36 37 36 35 31 28 26 22 16 12 10 9 10 7 6
6 4 5 5 5 4 3 4 4 6 7 3 5 8 4 4 4 6 11 15 15 17 16 9 17 26 27 31 38 38 38 36 37 34 28 22 15 12 12 11 11 9 6 7
4 2 6 3 3 5 2 6 6 3 3 3 3 5 6 4 9 4 10 14 17 17 13 12 15 20 27 37 38 38 36 36 36 34 30 27 20 17 16 12 10 8 8 7
7 6 5 4 6 6 9 5 7 4 4 3 3 3 9 4 9 6 12 18 17 18 16 15 16 26 32 30 36 39 37 36 36 35 32 29 22 15 11 10 8 6 8 8
6 2 5 8 4 8 2 5 5 5 3 2 5 5 7 5 7 8 3 10 14 12 12 12 21 24 25 27 32 36 37 38 37 35 33 29 25 18 13 11 9 10 6 10
5 3 2 3 4 2 6 7 3 3 3 6 2 3 10 5 9 12 9 13 8 8 9 9 14 18 22 28 33 36 36 37 37 35 34 32 27 20 16 13 12 12 6 12
5 5 6 6 8 7 4 8 6 6 4 6 3 5 7 7 10 8 7 6 8 10 12 14 17 23 25 27 29 34 38 38 39 35 32 32 28 23 16 13 11 11 10 9
4 5 4 2 2 8 4 3 5 8 4 2 3 8 8 4 4 5 4 7 10 8 7 7 7 17 22 25 32 38 40 36 37 36 31 28 28 24 18 13 10 9 9 10
5 2 2 2 4 5 5 6 4 3 3 2 5 5 5 5 6 8 8 8 9 4 6 6 8 16 23 27 32 33 38 42 39 35 31 29 27 19 15 11 8 7 6 5
7 4 5 3 3 8 1 0 7 6 4 5 1 6 6 7 8 10 12 8 5 5 5 6 7 18 23 25 28 33 36 40 37 31 33 27 25 23 17 12 14 13 12 7
5 5 2 3 3 2 2 5 6 5 4 1 3 6 6 8 7 8 9 5 5 7 6 5 3 13 18 22 26 31 33 37 26 15 20 20 21 25 20 20 15 13 8 12
7 0 2 8 6 3 1 2 5 6 4 5 5 5 4 8 9 5 6 6 5 3 1 3 5 6 15 22 25 28 30 21 18 22 14 29 34 29 24 20 16 14 13 9
8 3 6 6 6 1 3 2 4 5 4 6 6 6 8 12 9 10 11 9 5 3 4 6 6 6 14 21 27 24 21 24 32 24 20 32 36 31 28 22 20 15 12 16
4 4 0 1 3 2 1 3 7 3 5 3 3 5 6 7 7 8 8 10 13 8 5 6 6 6 10 18 24 25 29 34 38 19 29 25 32 32 27 21 20 17 19 26
3 1 1 4 6 3 5 5 7 4 3 4 4 2 2 5 5 6 8 12 13 13 13 2 4 7 10 16 20 22 28 33 33 33 36 38 39 37 29 24 24 26 29 23
3 5 3 2 4 4 4 2 2 1 2 1 2 2 4 4 4 4 7 9 8 10 10 11 8 3 11 11 16 22 32 33 31 36 38 45 44 42 30 25 27 32 29 22
5 4 3 3 2 1 5 4 3 3 1 3 2 4 4 4 5 5 3 6 8 8 10 12 9 12 15 3 17 21 24 29 33 37 34 39 38 36 30 28 29 32 30 26
3 5 3 4 3 4 5 4 6 5 5 6 4 2 3 5 1 2 3 5 5 3 6 5 13 15 12 0 11 20 21 23 26 25 28 32 36 34 31 29 30 32 31 29
5 6 4 3 4 6 8 4 5 4 3 7 7 6 3 1 2 4 5 6 8 10 9 15 11 19 16 6 12 18 20 22 22 28 34 36 39 39 37 35 34 35 34 33
3 3 5 3 4 6 6 4 5 5 7 6 6 3 2 1 4 4 8 9 7 10 12 12 17 11 14 18 15 19 20 22 26 27 28 32 39 41 40 36 33 35 34 34
4 5 3 2 2 3 6 5 7 6 1 4 3 3 3 5 5 5 8 8 8 7 17 18 16 23 26 22 23 17 22 21 25 28 28 24 21 21 28 31 34 36 36 34
1 4 3 7 5 3 4 2 1 3 3 4 5 4 4 4 4 6 6 6 6 11 10 12 14 19 26 24 13 14 15 21 22 20 20 18 22 18 17 22 32 35 34 34
2 2 1 2 2 3 3 4 1 3 2 4 2 2 2 3 4 6 6 7 5 8 12 17 14 10 12 13 18 19 18 19 22 22 22 27 28 22 24 25 28 33 32 29
4 3 1 4 5 6 5 3 3 1 3 1 3 3 4 4 8 4 6 8 6 7 7 11 11 13 11 8 7 11 17 21 24 23 24 21 22 29 32 28 28 33 36 38
3 5 3 4 5 3 5 5 3 4 3 5 4 5 4 3 7 5 9 7 9 4 6 8 6 3 2 1 5 12 20 22 25 24 22 23 23 23 22 25 22 25 31 29
Wind_Direction
20 94 171 195 172 140 132 160 254 262 258 32 218 253 196 192 193 195 192 194 199 214 210 210 208 203 204 210 210 212 212 215 215 215 213 218 225 224 234 242 230 226 241 263
37 180 212 136 143 122 110 317 289 292 274 165 133 253 238 175 207 198 192 196 206 204 195 196 205 196 203 207 211 213 216 214 215 217 216 216 223 226 225 226 221 214 249 239
148 228 144 160 154 142 157 196 200 249 331 260 12 314 302 228 246 209 210 203 202 206 207 195 193 195 195 201 207 214 216 216 215 214 211 211 217 212 207 213 225 236 244 229
195 206 157 132 208 127 296 201 208 219 65 268 49 278 292 314 281 230 195 199 206 203 203 199 196 195 195 207 209 213 216 216 211 209 204 202 197 202 216 223 235 235 204 206
241 169 158 156 200 146 227 168 200 196 174 75 321 84 272 2 304 252 199 211 207 201 199 192 191 199 203 202 207 213 215 217 212 209 210 210 216 218 221 222 233 212 189 182
212 272 164 198 162 179 123 117 59 54 82 63 246 151 277 249 239 295 219 208 209 189 201 192 197 199 200 199 201 209 212 218 215 214 215 216 218 214 210 211 200 196 212 180
331 245 237 139 114 98 79 59 352 352 359 219 31 101 243 267 266 246 211 213 180 166 188 173 179 189 187 194 199 207 212 216 218 217 218 217 220 218 213 210 205 203 226 186
155 325 177 178 174 173 172 152 158 204 206 250 54 228 251 256 275 278 241 184 163 190 201 198 190 191 188 191 195 201 211 214 215 215 219 221 218 216 215 224 231 228 222 206
142 278 289 198 113 128 166 184 168 103 12 46 260 292 305 325 316 321 219 173 210 216 194 196 179 194 186 188 196 203 209 211 216 213 215 222 219 211 211 223 237 254 254 209
189 352 287 321 111 44 151 155 82 16 137 231 297 287 244 293 267 260 267 230 234 187 178 177 185 194 192 196 201 199 211 216 217 212 212 217 217 209 204 197 177 180 251 211
151 123 276 163 176 165 103 75 50 112 107 153 194 275 217 225 222 224 243 241 242 210 204 195 200 195 196 195 194 200 206 216 216 201 209 203 201 197 182 186 198 164 154 198
190 133 251 213 96 234 159 174 135 124 230 73 145 273 343 307 305 260 266 283 271 208 217 209 203 181 185 193 193 199 205 215 212 166 164 196 213 194 193 201 164 165 157 174
183 196 29 352 360 8 53 158 108 109 95 187 134 263 321 357 341 301 284 309 310 328 325 222 201 200 188 195 198 201 204 192 158 159 208 206 214 196 197 193 174 161 144 166
91 98 151 178 214 182 338 120 123 107 114 168 223 297 320 331 335 335 329 322 104 147 226 244 219 213 215 204 204 194 180 177 141 142 183 198 198 189 191 183 179 172 162 176
104 116 151 145 279 247 183 78 154 127 154 141 206 202 281 299 305 306 314 342 360 22 180 241 234 217 225 226 202 184 180 174 172 161 179 224 212 188 179 186 184 178 170 165
23 128 67 6 12 38 81 42 74 62 137 116 171 261 247 304 357 13 17 20 23 5 15 238 279 268 230 215 202 174 170 177 173 160 167 223 202 186 172 172 172 173 171 179
74 123 88 255 11 8 15 299 273 139 181 131 168 246 350 329 16 21 10 23 7 7 4 359 3 311 294 247 206 178 169 178 168 166 185 186 188 181 174 173 178 183 183 178
115 82 83 176 43 173 246 292 197 128 318 204 231 235 237 253 289 297 359 7 1 356 359 7 360 352 356 281 194 191 181 169 168 175 176 179 178 174 177 177 178 184 186 181
43 117 85 132 149 280 316 189 151 167 248 194 209 248 248 308 39 342 3 329 299 335 306 324 15 9 343 322 197 182 176 176 170 174 177 177 177 173 175 175 185 187 186 182
61 64 113 125 151 189 233 191 154 117 294 196 188 219 163 334 81 260 316 327 313 324 286 356 1 353 342 280 195 187 174 177 184 180 183 185 182 185 185 184 184 185 190 181
30 22 154 163 203 283 247 174 139 119 236 178 184 216 327 73 203 263 315 312 336 326 318 352 326 321 314 281 214 192 185 198 197 193 185 186 189 191 191 185 177 184 184 178
180 149 202 107 110 257 158 106 161 213 140 126 132 188 256 255 276 278 290 297 310 308 303 271 277 297 286 275 216 205 199 202 202 195 189 186 174 165 173 167 175 178 177 174
318 189 194 175 215 261 289 287 14 168 125 138 158 172 213 263 299 307 300 294 291 297 298 282 248 245 250 240 226 215 223 203 188 174 165 165 159 160 184 175 168 163 172 168
279 150 194 30 272 272 296 305 248 167 108 132 165 203 203 260 277 306 306 298 322 324 323 322 312 266 265 249 236 224 218 208 177 169 174 171 167 161 204 194 178 163 164 165
214 8 37 290 291 304 283 248 291 239 168 217 268 251 269 298 299 268 287 299 320 302 348 345 326 320 322 313 274 239 208 199 171 168 173 176 176 167 179 186 180 173 180 183
196 185 148 230 231 185 263 289 292 249 247 237 240 284 269 253 274 276 284 281 264 290 342 339 321 298 327 318 154 197 193 185 159 154 157 154 146 140 156 164 157 180 183 188